Tracking 30264 objects as of 15-Feb-2025
HD Live streaming from Space Station
objects crossing your sky now

GJZ 04

Track GJZ 04 now!
10-day predictions


NORAD ID: 62293
Int'l Code: 2024-238D
Perigee: 977.5 km
Apogee: 999.3 km
Inclination: 59.9 °
Period: 104.7 minutes
Semi major axis: 7359 km
RCS: Unknown
Launch date: December 12, 2024
Source: People's Republic of China (PRC)
Launch site: Jiuquan Satellite Launch Center, China (JSC)
Your satellite tracking list
Your tracking list is empty




NASA's NSSDC Master Catalog

Two Line Element Set (TLE):
1 62293U 24238D   25046.78847429  .00000055  00000-0  18141-3 0  9995
2 62293  59.9138 303.1727 0014836 355.0679   5.0180 13.75113033  9010
Source of the keplerian elements: AFSPC